10.05.2024;10:00;48
10.05.2024;09:00;28
10.05.2024;08:00;13
10.05.2024;07:00;8
10.05.2024;06:00;3
10.05.2024;05:00;10
10.05.2024;04:00;16
10.05.2024;03:00;22
10.05.2024;02:00;21
10.05.2024;01:00;32
10.05.2024;00:00;34
09.05.2024;23:00;47
09.05.2024;22:00;63
09.05.2024;21:00;85
09.05.2024;20:00;110
09.05.2024;19:00;114
09.05.2024;18:00;119
09.05.2024;17:00;118
09.05.2024;16:00;114
09.05.2024;15:00;110
09.05.2024;14:00;107
09.05.2024;13:00;106
09.05.2024;12:00;101
09.05.2024;11:00;86
09.05.2024;10:00;63
09.05.2024;09:00;49
09.05.2024;08:00;22
09.05.2024;07:00;8
09.05.2024;06:00;7
09.05.2024;05:00;12
09.05.2024;04:00;11
09.05.2024;03:00;16
09.05.2024;02:00;11
09.05.2024;01:00;19
09.05.2024;00:00;18
08.05.2024;23:00;27
08.05.2024;22:00;24
08.05.2024;21:00;41
08.05.2024;20:00;58
08.05.2024;19:00;51
08.05.2024;18:00;52
08.05.2024;17:00;56
08.05.2024;16:00;58
08.05.2024;15:00;59
08.05.2024;14:00;55
08.05.2024;13:00;#
08.05.2024;12:00;#
08.05.2024;11:00;#
